Location: Kikino
(54.4440°N, 112.0940°W)
Time: 15:26:40
(UTC+00:00)

Tiros 1 despin weight - Visible Passes

Search period start: 19 May 2024 00:00
Search period end: 29 May 2024 00:00
Orbit: 579 x 621 km, 48.2° (Epoch: 18 May)

Date Brightness Start Highest point End Pass type
(mag) Time Alt. Az. Time Alt. Az. Time Alt. Az.
19 May ? 09:34:58 14° SSW 09:37:21 21° SSE 09:40:40 10° ESE visible
20 May ? 08:07:57 11° SE 08:07:57 11° SE 08:08:42 10° SE visible
20 May ? 09:44:35 13° SW 09:47:37 27° SSE 09:51:17 10° ESE visible
21 May ? 08:17:31 16° SSE 08:17:37 16° SSE 08:20:17 10° ESE visible
21 May ? 09:54:09 11° SW 09:57:55 32° SSE 10:01:46 10° ESE visible
22 May ? 08:27:01 20° S 08:27:48 21° SSE 08:31:06 10° ESE visible
22 May ? 10:04:14 10° WSW 10:08:12 35° S 10:12:10 10° ESE visible
23 May ? 08:36:27 22° SSW 08:38:01 27° SSE 08:41:41 10° ESE visible
23 May ? 10:14:31 10° WSW 10:18:31 36° S 10:22:30 10° ESE visible
24 May ? 07:09:09 15° SE 07:09:09 15° SE 07:10:38 10° ESE visible
24 May ? 08:45:46 18° SW 08:48:15 32° SSE 08:52:07 10° ESE visible
25 May ? 07:18:19 21° SSE 07:18:19 21° SSE 07:21:24 10° ESE visible
25 May ? 08:54:56 12° WSW 08:58:30 35° S 09:02:28 10° ESE visible
26 May ? 07:27:15 25° S 07:28:15 27° SSE 07:31:55 10° ESE visible
26 May ? 09:04:44 10° WSW 09:08:45 36° S 09:12:45 10° ESE visible
27 May ? 05:59:03 15° SE 05:59:03 15° SE 06:00:49 10° ESE visible
27 May ? 07:35:34 16° SW 07:38:26 32° SSE 07:42:18 10° ESE visible
27 May ? 09:15:01 10° WSW 09:18:59 35° S 09:22:55 10° ESE visible
28 May ? 06:04:51 10° SSW 06:08:13 21° SSE 06:11:33 10° ESE visible
28 May ? 07:44:37 10° WSW 07:48:38 35° S 07:52:37 10° ESE visible
28 May ? 09:25:19 10° WSW 09:29:11 31° SSW 09:33:00 10° SE visible
